Location: Innsbruck
(47.2657°N, 11.3914°E)
Time: 12:03:02
(UTC+01:00)

XW-2F - Pass Details

Date: 13 December 2021
Orbit: 495 x 515 km, 97.5° (Epoch: 16 January)

Event Time Altitude Azimuth Distance (km) Brightness Sun altitude
Rises 06:57:56 0° 7° (N) 2,647 ? -9.0°
Reaches altitude 10° 07:00:05 10° 2° (N) 1,753 ? -8.6°
Maximum altitude 07:03:43 48° 288° (WNW) 679 ? -8.1°
Drops below altitude 10° 07:07:19 10° 213° (SSW) 1,729 ? -7.5°
Sets 07:09:26 0° 208° (SSW) 2,606 ? -7.2°
